N9MOX Weather Reports


time (UTC)temp
C
wind
direction
speed
KPH
gust
KPH
rain 1hr
cm
rain 24hr
cm
rain mn
cm
humidity
%
barometer
mb
20260503184516 14 211 3.2 12.9 0.00 0.00 0.00 45 1015.4
20260503183013 14 198 0.0 8.0 0.00 0.00 0.00 47 1015.9
20260503181506 14 205 4.8 14.5 0.00 0.00 0.00 45 1016.3
20260503180004 15 251 3.2 14.5 0.00 0.00 0.00 46 1016.4
20260503174502 15 281 6.4 17.7 0.00 0.00 0.00 47 1016.7
20260503173110 15 205 4.8 19.3 0.00 0.00 0.00 45 1016.9
20260503171559 15 171 8.0 24.1 0.00 0.00 0.00 45 1017.1
20260503081531 2 257 0.0 0.0 0.00 0.00 0.00 82 1018.2
20260503071522 2 333 0.0 1.6 0.00 0.00 0.00 89 1018.2
20260503054513 1 333 0.0 0.0 0.00 0.00 0.00 85 1018.6
20260503053009 2 333 0.0 0.0 0.00 0.00 0.00 84 1018.7
20260503051507 2 333 0.0 0.0 0.00 0.00 0.00 83 1018.7
20260503050012 2 333 0.0 0.0 0.00 0.00 0.00 82 1018.8
20260503044505 2 333 0.0 0.0 0.00 0.00 0.00 83 1018.8
20260503043007 2 333 0.0 0.0 0.00 0.00 0.00 82 1018.7
20260503041504 2 333 0.0 0.0 0.00 0.00 0.00 81 1018.6
20260503040121 2 333 0.0 0.0 0.00 0.00 0.00 81 1018.6
20260503034559 3 333 0.0 0.0 0.00 0.00 0.00 79 1018.7
20260503033100 3 333 0.0 0.0 0.00 0.00 0.00 77 1018.7
20260503031606 3 333 0.0 0.0 0.00 0.00 0.00 74 1018.8
20260503030057 4 333 0.0 0.0 0.00 0.00 0.00 74 1018.8
20260503024557 4 333 0.0 0.0 0.00 0.00 0.00 72 1018.9
20260503023057 5 333 0.0 0.0 0.00 0.00 0.00 71 1018.8
20260503021555 5 320 0.0 0.0 0.00 0.00 0.00 65 1018.6
20260503020055 6 320 0.0 0.0 0.00 0.00 0.00 66 1018.5
20260503014609 6 320 0.0 0.0 0.00 0.00 0.00 60 1018.4
20260503013054 7 320 0.0 0.0 0.00 0.00 0.00 61 1018.3
20260503011557 7 320 0.0 0.0 0.00 0.00 0.00 58 1018.3
20260503010053 8 320 0.0 1.6 0.00 0.00 0.00 58 1018.2
20260503004553 8 320 0.0 6.4 0.00 0.00 0.00 51 1018.1
20260503003052 9 322 1.6 6.4 0.00 0.00 0.00 51 1018.0
20260503001604 9 328 1.6 8.0 0.00 0.00 0.00 48 1017.9
20260503000051 9 298 1.6 8.0 0.00 0.00 0.00 47 1017.8
20260502234552 10 317 4.8 14.5 0.00 0.00 0.00 46 1017.7
20260502233052 10 304 3.2 12.9 0.00 0.00 0.00 46 1017.6
20260502231550 10 50 3.2 9.7 0.00 0.00 0.00 47 1017.8
20260502230048 10 290 4.8 16.1 0.00 0.00 0.00 46 1017.9
20260502224548 10 314 9.7 19.3 0.00 0.00 0.00 44 1017.8
20260502223048 10 50 9.7 22.5 0.00 0.00 0.00 46 1017.9
20260502221546 10 344 3.2 12.9 0.00 0.00 0.00 47 1017.8
20260502220046 11 355 4.8 14.5 0.00 0.00 0.00 48 1017.8
20260502214545 11 302 9.7 22.5 0.00 0.00 0.00 43 1017.9
20260502213044 11 21 8.0 17.7 0.00 0.00 0.00 46 1017.8
20260502211542 11 337 9.7 24.1 0.00 0.00 0.00 45 1017.7
20260502210049 10 33 4.8 16.1 0.00 0.00 0.00 47 1017.6
20260502204546 11 328 3.2 19.3 0.00 0.00 0.00 49 1017.7
20260502203040 10 5 3.2 22.5 0.00 0.00 0.00 50 1017.7
20260502201548 10 344 4.8 16.1 0.00 0.00 0.00 50 1017.9
20260502200039 10 329 4.8 16.1 0.00 0.00 0.00 49 1017.9
20260502194539 11 339 11.3 22.5 0.00 0.00 0.00 51 1018.0
20260502193039 11 315 4.8 17.7 0.00 0.00 0.00 49 1018.0
20260502191550 11 350 4.8 22.5 0.00 0.00 0.00 49 1018.2
20260502190040 11 355 6.4 20.9 0.00 0.00 0.00 51 1018.3